Flag for Germany Weather past 2 weeks in Troisdorf, North Rhine-Westphalia, Germany

Now
55 °F

Passing clouds.


Feels Like: 52 °F
Forecast: 43 / 55 °F
Wind: 14 mph from Southwest

Location: Koeln / Bonn

Current Time: Dec 18, 2014 at 9:03:01 PM

Latest Report: Dec 18, 2014 at 8:20 PM


Visibility: N/A

Pressure: 29.95 "Hg

Humidity: 77%

Dew point: 48 °F

Location of TroisdorfLocation

Historic Weather in Troisdorf — Graph

°F

Troisdorf temperature yesterday

Maximum temperature yesterday: 50 °F (at 9:50 PM)
Minimum temperature yesterday: 37 °F (at 12:20 AM)
Average temperature yesterday: 42 °F

Past Weeks' High & Low Weather Summary

 TemperatureHumidityPressure
High55 °F (Dec 18, 5:20 PM)100% (Dec 7, 12:20 AM)30.39 "Hg (Dec 7, 12:20 AM)
Low30 °F (Dec 14, 10:50 PM)66% (Dec 7, 12:20 PM)29.45 "Hg (Dec 12, 5:20 PM)
Average40 °F87%29.98 "Hg
* Reported Dec 3 7:20 PM — Dec 18 7:50 PM, Troisdorf, Weather by CustomWeather, © 2014

Note: Actual official high and low records may vary slightly from our data, if they occured in-between our weather recording intervals... More about our weather records

Advertising

Troisdorf weather history for previous 24 hours

 ConditionsComfort  
Time TempWeatherWind HumidityBarometerVisibility
7:50 PM
Dec 18
55 °FPartly cloudy.20 mph77%29.95 "HgN/A
7:20 PM55 °FPassing clouds.22 mph77%29.92 "HgN/A
6:50 PM55 °FPassing clouds.16 mph88%29.92 "HgN/A
6:20 PM55 °FPassing clouds.16 mph88%29.92 "HgN/A
5:50 PM55 °FPassing clouds.10 mph88%29.89 "HgN/A
5:20 PM55 °FPassing clouds.14 mph88%29.89 "HgN/A
4:20 PM54 °FPartly sunny.14 mph88%29.89 "HgN/A
3:50 PM54 °FPartly sunny.13 mph94%29.89 "HgN/A
3:20 PM54 °FPartly sunny.12 mph94%29.89 "HgN/A
2:50 PM54 °FPartly sunny.12 mph94%29.89 "HgN/A
2:20 PM54 °FDrizzle. Partly sunny.10 mph94%29.89 "Hg6 mi
1:50 PM54 °FDrizzle. Partly sunny.10 mph94%29.86 "Hg6 mi
1:20 PM54 °FDrizzle. Partly sunny.10 mph94%29.86 "HgN/A
12:50 PM52 °FDrizzle. Partly sunny.8 mph94%29.86 "HgN/A
12:20 PM52 °FBroken clouds.7 mph94%29.89 "HgN/A
11:20 AM50 °FMixture of precip. Partly sunny.7 mph100%29.89 "HgN/A
10:50 AM50 °FDrizzle. Mostly cloudy.7 mph100%29.89 "Hg2 mi
10:20 AM50 °FDrizzle. Partly sunny.7 mph94%29.89 "Hg3 mi
9:50 AM50 °FDrizzle. Partly sunny.5 mph94%29.86 "HgN/A
9:20 AM50 °FDrizzle. Partly sunny.7 mph94%29.86 "HgN/A
8:50 AM50 °FPartly sunny.8 mph94%29.86 "HgN/A
8:20 AM50 °FPassing clouds.5 mph94%29.86 "HgN/A
7:50 AM50 °FDrizzle. Mostly cloudy.5 mph94%29.86 "Hg4 mi
7:20 AM50 °FPassing clouds.8 mph94%29.86 "HgN/A
6:50 AM50 °FPassing clouds.8 mph94%29.83 "HgN/A
6:20 AM50 °FDrizzle. Overcast.9 mph94%29.86 "HgN/A
5:50 AM50 °FDrizzle. Low clouds.9 mph88%29.83 "HgN/A
5:20 AM50 °FDrizzle. Overcast.9 mph88%29.83 "HgN/A
4:20 AM50 °FOvercast.10 mph88%29.86 "HgN/A
3:50 AM50 °FMostly cloudy.9 mph88%29.86 "HgN/A
3:20 AM48 °FOvercast.9 mph94%29.86 "HgN/A
2:50 AM50 °FMostly cloudy.7 mph94%29.86 "HgN/A
2:20 AM48 °FPassing clouds.8 mph100%29.86 "Hg6 mi
1:50 AM50 °FPartly cloudy.7 mph94%29.86 "Hg4 mi
1:20 AM50 °FPassing clouds.10 mph94%29.86 "Hg5 mi
12:50 AM50 °FPartly cloudy.8 mph94%29.86 "Hg5 mi
12:20 AM50 °FDrizzle. Fog.8 mph94%29.86 "Hg2 mi
11:20 PM
Dec 17
50 °FDrizzle. Fog.8 mph94%29.83 "Hg2 mi
10:50 PM50 °FDrizzle. Fog.9 mph94%29.83 "Hg2 mi
10:20 PM50 °FDrizzle. Fog.9 mph94%29.80 "Hg2 mi
9:50 PM50 °FDrizzle. Fog.9 mph94%29.80 "Hg2 mi
9:20 PM48 °FDrizzle. Fog.10 mph100%29.80 "Hg2 mi
Weather by CustomWeather, © 2014

See weather overviewHow to use our weather pages